Location: Unspecified
(0.0000°N, 0.0000°E)
Time: 05:11:31
(UTC+00:00)

Envisat - Pass Details

Date: 06 February 2019
Orbit: 764 x 766 km, 98.2° (Epoch: 21 February)

Event Time Altitude Azimuth Distance (km) Brightness Sun altitude
Rises 18:57:32 0° 163° (SSE) 3,231 6.2 -10.5°
Reaches altitude 10° 18:59:52 10° 160° (SSE) 2,303 5.4 -11.0°
Maximum altitude 19:04:54 67° 78° (ENE) 828 2.9 -12.2°
Drops below altitude 10° 19:09:55 10° 356° (N) 2,292 5.3 -13.4°
Sets 19:12:13 0° 353° (N) 3,215 6.1 -14.0°
